Change the Weather History Date:

Thursday, February 21, 2013

  Actual Average Record
Temperature  
Mean Temperature 82 °F -  
Max Temperature 87 °F 85 °F 87 °F (1997)
Min Temperature 77 °F 75 °F 73 °F (2006)
Cooling Degree Days 17    
Growing Degree Days 32 (Base 50)    
Moisture  
Dew Point 72 °F    
Average Humidity 71    
Maximum Humidity 79    
Minimum Humidity 55    
Precipitation  
Precipitation 0.01 in 0.02 in - ()
Sea Level Pressure  
Sea Level Pressure 29.91 in    
Wind  
Wind Speed 13 mph ()    
Max Wind Speed 18 mph    
Max Gust Speed -    
Visibility 8.0 miles    
Events Rain    
Averages and records for this station are not official NWS values.
T = Trace of Precipitation, MM = Missing Value Source: Averaged Metar Reports

Daily Weather History Graph

Daily Weather History Graph

Search for Another Location

Airport or City:

Trip Planner

Search our weather history database for the weather conditions in past years. The results will help you decide how hot, cold, wet, or windy it might be!

Date:

Astronomy

Feb. 21, 2013 Rise Set
Actual Time 6:55 AM AST 6:43 PM AST
Civil Twilight 6:33 AM AST 7:05 PM AST
Nautical Twilight 6:08 AM AST 7:30 PM AST
Astronomical Twilight 5:44 AM AST 7:54 PM AST
Moon 3:20 PM AST (2/21) 3:30 AM AST (2/21)
Length of Visible Light 12h 31m
Length of Day
11h 48m
Waxing Gibbous, 83% of the Moon is Illuminated
Feb 21
Waxing Gibbous
Feb 25
Full
Mar 4
Last Quarter
Mar 11
New
Mar 19
First Quarter

Hourly Weather History & Observations

Time (AST) Temp. Heat Index Dew Point Humidity Pressure Visibility Wind Dir Wind Speed Gust Speed Precip Events Conditions
12:00 AM 78.8 °F - 71.6 °F 78% 29.92 in 6.2 mi ESE 16.1 mph - N/A   Partly Cloudy
1:00 AM 78.8 °F - 71.6 °F 78% 29.89 in 6.2 mi East 15.0 mph - N/A   Partly Cloudy
2:00 AM 79 °F - 72 °F 72% 29.89 in 14 mi East 13.8 mph - -   Scattered Clouds
2:00 AM 78.8 °F - 71.6 °F 78% 29.89 in 6.2 mi East 15.0 mph - N/A   Partly Cloudy
3:00 AM 78.8 °F - 71.6 °F 78% 29.89 in 6.2 mi ESE 12.7 mph - N/A   Partly Cloudy
4:00 AM 78.8 °F - 71.6 °F 78% 29.86 in 6.2 mi ESE 11.5 mph - N/A   Partly Cloudy
5:00 AM 78 °F - 71 °F 73% 29.88 in 14 mi ESE 11.5 mph - - Rain Light Rain Showers
5:00 AM 78.8 °F - 71.6 °F 78% 29.89 in 6.2 mi ESE 12.7 mph - N/A   Partly Cloudy
6:00 AM 78.8 °F - 71.6 °F 78% 29.89 in 6.2 mi East 16.1 mph - N/A   Scattered Clouds
7:00 AM 78.8 °F - 69.8 °F 74% 29.92 in 6.2 mi ESE 12.7 mph - N/A   Partly Cloudy
8:00 AM 80 °F - 70 °F 63% 29.94 in 14 mi ESE 13.8 mph - -   Partly Cloudy
8:00 AM 80.6 °F 83.9 °F 69.8 °F 70% 29.95 in 6.2 mi ESE 15.0 mph - N/A   Partly Cloudy
9:00 AM 82.4 °F 86.3 °F 69.8 °F 66% 29.95 in 6.2 mi ESE 18.4 mph - N/A   Partly Cloudy
10:00 AM 84.2 °F 89.6 °F 71.6 °F 66% 29.98 in 6.2 mi East 16.1 mph - N/A   Scattered Clouds
11:00 AM 84 °F - 72 °F 60% 29.98 in 14 mi East 15.0 mph - -   Partly Cloudy
11:00 AM 84.2 °F 89.6 °F 71.6 °F 66% 29.98 in 6.2 mi East 15.0 mph - N/A   Scattered Clouds
12:00 PM 86.0 °F 91.8 °F 71.6 °F 62% 29.95 in 6.2 mi East 16.1 mph - N/A   Scattered Clouds
1:00 PM 86.0 °F 91.8 °F 71.6 °F 62% 29.92 in 6.2 mi East 15.0 mph - N/A   Scattered Clouds
2:00 PM 85 °F - 71 °F 55% 29.91 in 12 mi East 17.3 mph - -   Haze
2:00 PM 86.0 °F 91.8 °F 71.6 °F 62% 29.89 in 6.2 mi East 17.3 mph - N/A   Scattered Clouds
3:00 PM 86.0 °F 93.4 °F 73.4 °F 66% 29.86 in 6.2 mi East 16.1 mph - N/A   Scattered Clouds
4:00 PM 84.2 °F 89.6 °F 71.6 °F 66% 29.86 in 6.2 mi East 17.3 mph - N/A   Scattered Clouds
5:00 PM 83 °F - 72 °F 61% 29.86 in 12 mi East 15.0 mph - -   Haze
5:00 PM 82.4 °F 87.2 °F 71.6 °F 70% 29.86 in 6.2 mi East 15.0 mph - N/A   Scattered Clouds
6:00 PM 80.6 °F 84.6 °F 71.6 °F 74% 29.86 in 6.2 mi ESE 15.0 mph - N/A   Partly Cloudy
7:00 PM 80.6 °F 84.6 °F 71.6 °F 74% 29.89 in 6.2 mi East 13.8 mph - N/A   Partly Cloudy
8:00 PM 80 °F - 73 °F 74% 29.90 in 12 mi East 13.8 mph - -   Scattered Clouds
8:00 PM 80.6 °F 85.4 °F 73.4 °F 79% 29.89 in 6.2 mi East 13.8 mph - N/A   Partly Cloudy
9:00 PM 78.8 °F - 71.6 °F 78% 29.92 in 6.2 mi East 13.8 mph - N/A   Scattered Clouds
10:00 PM 78.8 °F - 71.6 °F 78% 29.92 in 6.2 mi East 12.7 mph - N/A   Scattered Clouds
11:00 PM 79 °F - 72 °F 72% 29.95 in 14 mi East 13.8 mph - -   Partly Cloudy
11:00 PM 78.8 °F - 71.6 °F 78% 29.95 in 6.2 mi East 13.8 mph - N/A   Scattered Clouds